Regional Weather Roundup
Issued by NWS Jackson, KY

Home | Current Version | Previous Version | Text Only | Print | Product List | Glossary Off
Versions: 1 2 3 4 5 6 7 8 9 10 11 12 13 14 15 16 17 18 19 20 21 22 23 24 25 26 27

000
ASUS43 KJKL 251010
RWRJKL

EAST KENTUCKY HOURLY WEATHER ROUNDUP
NATIONAL WEATHER SERVICE JACKSON KY
600 AM EDT MON JUL 25 2016

NOTE: "FAIR" INDICATES FEW OR NO CLOUDS BELOW 12,000 FEET WITH
NO SIGNIFICANT WEATHER AND/OR OBSTRUCTIONS TO VISIBILITY.

* THESE REPORTS ARE NOT UNDER NWS QUALITY CONTROL AND MAY NOT
  REPORT WEATHER SUCH AS PRECIPITATION AND FOG.

KYZ079-080-083-085-087-088-110-112-115-119-120-251100
...EASTERN KENTUCKY...

CITY           SKY/WX    TMP DP  RH WIND       PRES   REMARKS
JACKSON        CLOUDY    75  73  93 CALM      30.06S
LONDON         CLEAR     73  70  90 S5        30.06S
SOMERSET*      CLOUDY    72  72 100 CALM      30.05S
MONTICELLO*    CLEAR    N/A N/A N/A W12       30.06
WILLIAMSBURG*  SUNNY     70  70 100 CALM      30.06F
MIDDLESBORO*   MOCLDY    72  72 100 CALM      30.08S
HARLAN APT*    CLOUDY    72  70  94 CALM      30.10S
PIKE CO APT*     N/A     74  74 100 S3        30.08R
BIG SANDY APT* CLOUDY    75  75 100 CALM      30.06R
MOREHEAD APT*  CLOUDY    75  73  94 S5        30.05S FOG
ASHLAND*       CLOUDY    75  73  94 CALM      29.99S
$$

KYZ035-036-041-042-044-050-067-078-099-251100
...CENTRAL KENTUCKY...

CITY           SKY/WX    TMP DP  RH WIND       PRES   REMARKS
MT STERLING*   CLOUDY    73  73 100 CALM      30.05S FOG
FLEMING/MASON* CLOUDY    75  73  93 SW5       30.03S
DANVILLE*      PTCLDY    73  72  94 CALM      30.05S
RICHMOND*      PTCLDY    75  72  88 CALM      30.04R
LEXINGTON      CLOUDY    75  72  90 S3        30.03S
FRANKFORT      CLOUDY    77  73  87 CALM      30.01S
LOUISVILLE     MOCLDY    82  75  79 CALM      29.98F
LEBANON*         N/A     77  75  94 SE6       30.03S
GLASGOW*       PTCLDY    76  76 100 CALM      30.01S
BOWLING GREEN  MOCLDY    79  75  87 CALM      30.01S
$$

KYZ091>093-OHZ055-061-077-WVZ005-015-034-035-042-251100
...SOUTHERN OHIO/WEST VIRGINIA...

CITY           SKY/WX    TMP DP  RH WIND       PRES   REMARKS
COVINGTON      MOCLDY    76  75  97 S7        29.99F FOG
COLUMBUS       CLOUDY    76  74  93 CALM      29.97S
DAYTON         CLOUDY    77  75  93 SW10      29.99R
WILMINGTON     PTCLDY    75  74  96 SW6       29.99F
HUNTINGTON       N/A     77  75  93 S3        30.02R
CHARLESTON       N/A     74  72  93 CALM      30.03R FOG
PINEVILLE*     FOG       72  68  89 MISG      30.14S VSB 1
BECKLEY          N/A     70  66  87 CALM      30.14R
BLUEFIELD        N/A     70  65  84 W5        30.17R
LOGAN CO APT*  FOG       73  73 100 CALM      30.07S VSB 1/2
$$

VAZ002-007-008-TNZ017-027-036-066-071-251100
...SOUTHWEST VIRGINIA/EAST TENNESSEE...

CITY           SKY/WX    TMP DP  RH WIND       PRES   REMARKS
WISE*            N/A     72  68  88 CALM      30.16S
JONESVILLE*      N/A    N/A N/A N/A CALM      30.10S
ABINGDON*        N/A     72  70  95 CALM      30.14R
BRISTOL        PTCLDY    70  68  93 CALM      30.10R
MORRISTOWN*    MOSUNNY   73  72  94 CALM      30.07S
SEVIERVILLE*   SUNNY     72  68  88 CALM      30.06S
KNOXVILLE      PTCLDY    76  73  91 SW5       30.05R
OAK RIDGE      CLEAR     77  72  84 CALM      30.06S
CROSSVILLE     CLEAR     70  69  97 CALM      30.12R FOG
NASHVILLE      MOCLDY    76  73  91 S3        30.03S
$$

...KEY TO REMARKS...
VSB - VISIBILITY IN MILES
WCI - WIND CHILL INDEX
HX  - HEAT INDEX

$$




USA.gov is the U.S. government's official web portal to all federal, state and local government web resources and services.